TimeEST,TemperatureF,Dew PointF,Humidity,Sea Level PressureIn,VisibilityMPH,Wind Direction,Wind SpeedMPH,Gust SpeedMPH,PrecipitationIn,Events,Conditions,WindDirDegrees,DateUTC
12:53 AM,30.0,24.1,79,30.46,10.0,NNE,3.5,-,N/A,,Clear,20,2012-11-15 05:53:00
1:53 AM,30.0,24.1,79,30.45,10.0,ENE,6.9,-,N/A,,Clear,70,2012-11-15 06:53:00
2:53 AM,28.9,24.1,82,30.44,10.0,ENE,6.9,-,N/A,,Clear,60,2012-11-15 07:53:00
3:53 AM,28.0,24.1,85,30.44,10.0,Calm,Calm,-,N/A,,Clear,0,2012-11-15 08:53:00
4:53 AM,28.9,23.0,78,30.43,10.0,East,5.8,-,N/A,,Clear,80,2012-11-15 09:53:00
5:53 AM,25.0,21.9,88,30.43,10.0,Calm,Calm,-,N/A,,Clear,0,2012-11-15 10:53:00
6:53 AM,25.0,21.0,85,30.41,10.0,Calm,Calm,-,N/A,,Clear,0,2012-11-15 11:53:00
7:53 AM,26.1,23.0,88,30.41,10.0,Calm,Calm,-,N/A,,Clear,0,2012-11-15 12:53:00
8:53 AM,34.0,25.0,70,30.42,10.0,Calm,Calm,-,N/A,,Clear,0,2012-11-15 13:53:00
9:53 AM,39.0,27.0,62,30.42,10.0,North,3.5,-,N/A,,Clear,350,2012-11-15 14:53:00
10:53 AM,43.0,27.0,53,30.40,10.0,Calm,Calm,-,N/A,,Clear,0,2012-11-15 15:53:00
11:53 AM,42.1,28.9,60,30.38,10.0,NNW,9.2,-,N/A,,Clear,340,2012-11-15 16:53:00
12:53 PM,43.0,30.0,60,30.36,10.0,North,8.1,-,N/A,,Clear,350,2012-11-15 17:53:00
1:53 PM,44.1,30.0,58,30.35,10.0,NNW,8.1,-,N/A,,Clear,340,2012-11-15 18:53:00
2:53 PM,44.1,28.0,53,30.34,10.0,North,5.8,-,N/A,,Clear,360,2012-11-15 19:53:00
3:53 PM,44.1,27.0,51,30.35,10.0,North,4.6,-,N/A,,Clear,360,2012-11-15 20:53:00
4:53 PM,39.9,27.0,60,30.34,10.0,Calm,Calm,-,N/A,,Clear,0,2012-11-15 21:53:00
5:53 PM,33.1,27.0,78,30.35,10.0,South,4.6,-,N/A,,Clear,170,2012-11-15 22:53:00
6:53 PM,30.0,26.1,85,30.35,10.0,Calm,Calm,-,N/A,,Clear,0,2012-11-15 23:53:00
7:53 PM,28.9,26.1,89,30.35,10.0,SSE,4.6,-,N/A,,Clear,160,2012-11-16 00:53:00
8:53 PM,28.9,26.1,89,30.35,10.0,South,3.5,-,N/A,,Clear,170,2012-11-16 01:53:00
9:53 PM,28.9,26.1,89,30.35,10.0,Calm,Calm,-,N/A,,Clear,0,2012-11-16 02:53:00
10:53 PM,30.9,27.0,85,30.35,10.0,Calm,Calm,-,N/A,,Clear,0,2012-11-16 03:53:00
11:53 PM,30.0,27.0,88,30.35,10.0,Calm,Calm,-,N/A,,Clear,0,2012-11-16 04:53:00